Weather in Tomashpil

Ukraine / Vinnytsia Region     49˚32′33″N   28˚07′11″E
temp.,
°C
wind,
m/s
gust,
m/s
humid.,
%
clouds,
%
prec.,
mm/h
press.,
hPa
HPBL,
m
2 december, wed
wed223:00−4˚ne359275 0.0 1028263
02:00−3˚nne259779 0.1 1028150
05:00−2˚ne259691 0.2 1027210
08:00−3˚ne229896 0.2 102768
11:00−1˚e238360 0.0 1027349
14:00ese228075 0.1 1026517
17:00−1˚ese2388100 0.1 1025141
20:00−1˚ese3587100 0.1 1025206
3 december, thu
thu323:00−2˚se249492 0.0 1025120
02:00−3˚sse239455 0.0 102550
05:00−3˚se349613 0.0 102392
08:00−1˚se399755 0.0 1024357
11:00+1˚sse6987100 0.0 1023694
14:00+2˚sse5980100 0.0 1022697
17:00+1˚se51088100 0.0 1021395
20:00+1˚se6129199 0.0 1021411
4 december, fri
fri423:00+2˚se5129590 0.0 1020421
02:00+3˚se6129295 0.0 1018568
05:00+3˚se61488100 0.0 1018612
08:00+1˚sse7169265 0.0 1018465
11:00+6˚sse9168761 0.0 1017996
14:00+6˚se9168778 0.0 1016798
17:00+6˚se91779100 0.0 1016747
20:00+5˚se8178398 0.0 1018699
5 december, sat
sat523:00+6˚sse81587100 0.0 1019693
02:00+6˚sse81588100 0.0 1019701
05:00+6˚sse81491100 0.0 1019653
08:00+5˚sse81292100 0.0 1020651
11:00+5˚sse81189100 0.0 1021674
14:00+5˚sse81387100 0.0 1021656
17:00+5˚se71285100 0.0 1021649
20:00+4˚se81387100 0.0 1023615
6 december, sun
sun623:00+3˚se71286100 0.0 1023569
02:00+2˚se71186100 0.0 1024555
05:00+1˚se81287100 0.0 1024547
08:00se81287100 0.0 1024549
11:00se81184100 0.0 1024549
14:00se81279100 0.0 1023541
17:00se7137829 0.0 1023622
20:00−1˚se8158145 0.0 1023621